Location: Ferma
(41.9500°N, 44.5167°E)
Time: 14:27:41
(UTC+00:00)

NOSS 3-1 (C) - Pass Details

Date: 24 October 2021
Orbit: 717 x 1491 km, 63.4° (Epoch: 25 November)

Event Time Altitude Azimuth Distance (km) Brightness Sun altitude
Rises 14:34:16 0° 201° (SSW) 3,139 6.7 -5.8°
Reaches altitude 10° 14:36:32 10° 197° (SSW) 2,258 5.8 -6.2°
Maximum altitude 14:41:32 58° 119° (ESE) 941 3.2 -7.1°
Drops below altitude 10° 14:47:21 10° 42° (NE) 2,613 5.3 -8.2°
Sets 14:50:08 0° 39° (NE) 3,678 6.1 -8.7°
Enters shadow 14:50:17 - 39° (NE) 3,736 6.1 -8.7°
